When you browse on this site, cookies collect data to enhance your experience and personalize the content and advertising you see.
Visit our Privacy Policy to learn more. By continuing to use the site, you agree to this use of cookies and data.
  • En España
  • Lista de países
  • Para 7 días
  • Temperatura del agua
  • El tiempo en el mapa
  • Informadores
  • user-avatar
    Iniciar sesión

    Tiempo cada hora Krupets'

    Hoy, 17 Octubre, Jueves

    Tiempo Temperatura Precipitaciones Viento Presión Humedad
    00:00 +12°C° 0 mm 3 mps 743 mmHg 68%
    01:00 +11°C° 0 mm 3 mps 744 mmHg 71%
    02:00 +12°C° 0 mm 2 mps 744 mmHg 70%
    03:00 +10°C° 0 mm 2 mps 744 mmHg 73%
    04:00 +10°C° 0 mm 2 mps 744 mmHg 75%
    05:00 +10°C° 0 mm 2 mps 744 mmHg 78%
    06:00 +10°C° 0 mm 2 mps 744 mmHg 80%
    07:00 +12°C° 0 mm 2 mps 744 mmHg 82%
    08:00 +13°C° 0 mm 2 mps 745 mmHg 84%
    09:00 +15°C° 0 mm 2 mps 745 mmHg 76%
    10:00 +16°C° 0 mm 2 mps 745 mmHg 68%
    11:00 +19°C° 0 mm 1 mps 745 mmHg 60%
    12:00 +19°C° 0 mm 2 mps 745 mmHg 58%
    13:00 +19°C° 0 mm 2 mps 745 mmHg 56%
    14:00 +20°C° 0 mm 2 mps 745 mmHg 53%
    15:00 +20°C° 0 mm 1 mps 745 mmHg 58%
    16:00 +18°C° 0 mm 1 mps 745 mmHg 64%
    17:00 +16°C° 0 mm 1 mps 745 mmHg 69%
    18:00 +15°C° 0 mm 1 mps 745 mmHg 72%
    19:00 +14°C° 0 mm 1 mps 745 mmHg 75%
    20:00 +13°C° 0 mm 1 mps 745 mmHg 79%
    21:00 +12°C° 0 mm 0 mps 745 mmHg 80%
    22:00 +12°C° 0 mm 0 mps 745 mmHg 81%
    23:00 +11°C° 0 mm 0 mps 745 mmHg 82%

    Mañana, 18 Octubre, Viernes

    Tiempo Temperatura Precipitaciones Viento Presión Humedad
    00:00 +11°C° 0 mm 0 mps 745 mmHg 84%
    01:00 +12°C° 0 mm 1 mps 745 mmHg 85%
    02:00 +12°C° 0 mm 1 mps 745 mmHg 86%
    03:00 +12°C° 0 mm 1 mps 745 mmHg 87%
    04:00 +11°C° 0 mm 1 mps 745 mmHg 88%
    05:00 +11°C° 0 mm 1 mps 745 mmHg 90%
    06:00 +12°C° 0 mm 2 mps 745 mmHg 88%
    07:00 +12°C° 0 mm 2 mps 745 mmHg 87%
    08:00 +13°C° 0 mm 2 mps 745 mmHg 86%
    09:00 +15°C° 0 mm 2 mps 745 mmHg 78%
    10:00 +17°C° 0 mm 2 mps 745 mmHg 70%
    11:00 +19°C° 0 mm 3 mps 745 mmHg 62%
    12:00 +20°C° 0 mm 3 mps 745 mmHg 58%
    13:00 +21°C° 0 mm 3 mps 744 mmHg 54%
    14:00 +22°C° 0 mm 3 mps 744 mmHg 50%
    15:00 +20°C° 0 mm 2 mps 744 mmHg 55%
    16:00 +19°C° 0 mm 2 mps 744 mmHg 59%
    17:00 +18°C° 0 mm 2 mps 743 mmHg 63%
    18:00 +17°C° 0 mm 2 mps 743 mmHg 65%
    19:00 +16°C° 0 mm 2 mps 743 mmHg 66%
    20:00 +15°C° 0 mm 2 mps 743 mmHg 67%
    21:00 +15°C° 0 mm 2 mps 743 mmHg 67%
    22:00 +13°C° 0 mm 3 mps 743 mmHg 66%
    23:00 +13°C° 0 mm 3 mps 744 mmHg 65%

    Pasado mañana, 19 Octubre, Sábado

    Tiempo Temperatura Precipitaciones Viento Presión Humedad
    00:00 +12°C° 0 mm 3 mps 743 mmHg 64%
    01:00 +12°C° 0 mm 3 mps 743 mmHg 63%
    02:00 +12°C° 0 mm 3 mps 743 mmHg 62%
    03:00 +12°C° 0 mm 3 mps 743 mmHg 63%
    04:00 +11°C° 0 mm 3 mps 743 mmHg 64%
    05:00 +11°C° 0 mm 3 mps 743 mmHg 64%
    06:00 +11°C° 0 mm 3 mps 743 mmHg 64%
    07:00 +12°C° 0 mm 3 mps 744 mmHg 65%
    08:00 +12°C° 0 mm 3 mps 744 mmHg 65%
    09:00 +14°C° 0 mm 3 mps 744 mmHg 60%
    10:00 +17°C° 0 mm 3 mps 744 mmHg 55%
    11:00 +19°C° 0 mm 4 mps 744 mmHg 50%
    12:00 +20°C° 0 mm 4 mps 744 mmHg 48%
    13:00 +21°C° 0 mm 3 mps 744 mmHg 47%
    14:00 +22°C° 0 mm 3 mps 744 mmHg 45%
    15:00 +21°C° 0 mm 3 mps 744 mmHg 50%
    16:00 +20°C° 0 mm 3 mps 743 mmHg 55%
    17:00 +18°C° 0 mm 2 mps 743 mmHg 60%
    18:00 +17°C° 0 mm 2 mps 743 mmHg 61%
    19:00 +16°C° 0 mm 3 mps 744 mmHg 62%
    20:00 +16°C° 0 mm 3 mps 744 mmHg 64%
    21:00 +14°C° 0 mm 3 mps 744 mmHg 64%
    22:00 +14°C° 0 mm 3 mps 744 mmHg 63%
    23:00 +13°C° 0 mm 3 mps 744 mmHg 63%

    20 Octubre, Domingo

    Tiempo Temperatura Precipitaciones Viento Presión Humedad
    00:00 +13°C° 0 mm 3 mps 744 mmHg 63%
    01:00 +13°C° 0 mm 3 mps 744 mmHg 63%
    02:00 +13°C° 0 mm 3 mps 744 mmHg 63%
    03:00 +13°C° 0 mm 3 mps 744 mmHg 64%
    04:00 +12°C° 0 mm 3 mps 744 mmHg 65%
    05:00 +12°C° 0 mm 3 mps 744 mmHg 66%
    06:00 +12°C° 0 mm 3 mps 744 mmHg 67%
    07:00 +12°C° 0 mm 3 mps 744 mmHg 67%
    08:00 +13°C° 0 mm 3 mps 744 mmHg 68%
    09:00 +16°C° 0 mm 3 mps 744 mmHg 63%
    10:00 +18°C° 0 mm 3 mps 745 mmHg 58%
    11:00 +20°C° 0 mm 4 mps 745 mmHg 53%
    12:00 +21°C° 0 mm 4 mps 745 mmHg 50%
    13:00 +22°C° 0 mm 4 mps 745 mmHg 47%
    14:00 +24°C° 0 mm 3 mps 744 mmHg 44%
    15:00 +22°C° 0 mm 3 mps 744 mmHg 50%
    16:00 +20°C° 0 mm 3 mps 744 mmHg 55%
    17:00 +19°C° 0 mm 3 mps 744 mmHg 60%
    18:00 +18°C° 0 mm 3 mps 744 mmHg 62%
    19:00 +17°C° 0 mm 3 mps 745 mmHg 64%
    20:00 +16°C° 0 mm 3 mps 745 mmHg 66%
    21:00 +16°C° 0 mm 3 mps 745 mmHg 67%
    22:00 +14°C° 0 mm 3 mps 745 mmHg 67%
    23:00 +14°C° 0 mm 3 mps 745 mmHg 68%

    21 Octubre, Lunes

    Tiempo Temperatura Precipitaciones Viento Presión Humedad
    00:00 +14°C° 0 mm 3 mps 745 mmHg 69%
    01:00 +13°C° 0 mm 3 mps 745 mmHg 70%
    02:00 +13°C° 0 mm 3 mps 745 mmHg 71%
    03:00 +13°C° 0 mm 3 mps 745 mmHg 71%
    04:00 +13°C° 0 mm 3 mps 745 mmHg 72%
    05:00 +12°C° 0 mm 3 mps 744 mmHg 72%
    06:00 +13°C° 0 mm 3 mps 745 mmHg 71%
    07:00 +13°C° 0 mm 4 mps 745 mmHg 70%
    08:00 +13°C° 0 mm 4 mps 745 mmHg 68%
    09:00 +15°C° 0 mm 4 mps 745 mmHg 63%
    10:00 +18°C° 0 mm 4 mps 745 mmHg 57%
    11:00 +20°C° 0 mm 4 mps 745 mmHg 52%
    12:00 +21°C° 0 mm 4 mps 744 mmHg 49%
    13:00 +22°C° 0 mm 5 mps 744 mmHg 46%
    14:00 +25°C° 0 mm 5 mps 744 mmHg 44%
    15:00 +22°C° 0 mm 4 mps 743 mmHg 48%
    16:00 +21°C° 0 mm 4 mps 743 mmHg 52%
    17:00 +19°C° 0 mm 3 mps 743 mmHg 57%
    18:00 +18°C° 0 mm 4 mps 743 mmHg 58%
    19:00 +18°C° 0 mm 4 mps 743 mmHg 60%
    20:00 +17°C° 0 mm 4 mps 743 mmHg 61%
    21:00 +17°C° 0 mm 4 mps 743 mmHg 62%
    22:00 +15°C° 0 mm 4 mps 743 mmHg 63%
    23:00 +16°C° 0 mm 3 mps 743 mmHg 64%

    22 Octubre, Martes

    Tiempo Temperatura Precipitaciones Viento Presión Humedad
    00:00 +16°C° 0 mm 3 mps 743 mmHg 65%
    01:00 +14°C° 0 mm 3 mps 743 mmHg 67%
    02:00 +14°C° 0 mm 3 mps 743 mmHg 68%
    03:00 +14°C° 0 mm 3 mps 744 mmHg 70%
    04:00 +13°C° 0 mm 3 mps 744 mmHg 73%
    05:00 +13°C° 0 mm 3 mps 744 mmHg 75%
    06:00 +13°C° 0 mm 3 mps 744 mmHg 78%
    07:00 +13°C° 0 mm 3 mps 745 mmHg 81%
    08:00 +13°C° 0 mm 4 mps 745 mmHg 84%
    09:00 +14°C° 0 mm 4 mps 745 mmHg 80%
    10:00 +15°C° 0 mm 5 mps 746 mmHg 76%
    11:00 +17°C° 0 mm 5 mps 746 mmHg 72%
    12:00 +17°C° 0 mm 5 mps 746 mmHg 70%
    13:00 +17°C° 0 mm 6 mps 746 mmHg 68%
    14:00 +19°C° 0 mm 6 mps 747 mmHg 66%
    15:00 +16°C° 0 mm 5 mps 747 mmHg 70%
    16:00 +15°C° 0 mm 4 mps 747 mmHg 74%
    17:00 +13°C° 0 mm 3 mps 747 mmHg 77%
    18:00 +12°C° 0 mm 3 mps 748 mmHg 80%
    19:00 +12°C° 0 mm 3 mps 748 mmHg 82%
    20:00 +11°C° 0 mm 3 mps 748 mmHg 84%
    21:00 +11°C° 0 mm 3 mps 749 mmHg 83%
    22:00 +10°C° 0 mm 3 mps 749 mmHg 82%
    23:00 +10°C° 0 mm 3 mps 749 mmHg 81%
    Mostrar más